Location: Buckeye Ditch
(40.9104°N, 122.9517°W)
Time: 12:44:34
(UTC+00:00)

Explorer 7 - Pass Details

Date: 22 May 2025
Orbit: 445 x 571 km, 50.3° (Epoch: 22 June)

Event Time Altitude Azimuth Distance (km) Brightness Sun altitude
Rises 14:26:21 0° 305° (NW) 2,606 9.9 16.5°
Reaches altitude 10° 14:28:36 10° 313° (NW) 1,743 9.1 16.9°
Maximum altitude 14:32:22 40° 24° (NNE) 793 8.3 17.6°
Drops below altitude 10° 14:36:16 10° 95° (E) 1,810 11.2 18.4°
Sets 14:38:39 0° 103° (ESE) 2,721 11.6 18.8°
